DateTimeUTC,F1_A11,F1_S11,BsB_S11,BsG_S11,BsR_S11,BbsB_S11,BbsG_S11,BbsR_S11,BaB_A11,BaG_A11,BaR_A11,Tu_S11,T_S11,Uu_S11,U_S11,P_S11,T1_A11
2021-04-11T05:00:00Z,00000200,21000000,,,,,,,-000.15,-000.23,-000.18,16.2,23.8,,00.0,0665.6,31.0
2021-04-11T05:01:00Z,00000200,21000000,,,,,,,-000.07,-000.18,-000.01,16.1,23.8,,00.0,0665.6,31.0
2021-04-11T05:02:00Z,00000200,21000000,,,,,,,-000.05,-000.19,-000.27,16.1,23.8,,00.0,0665.6,31.0
2021-04-11T05:03:00Z,00000200,61000000,,,,,,,-000.36,0000.12,0000.04,16.1,23.9,,00.0,0665.6,31.0
2021-04-11T05:04:00Z,00000200,41000000,0000.62,0000.31,0000.30,0000.37,0000.06,0000.09,0000.33,0000.07,0000.01,16.2,23.6,,00.0,0666.5,31.0
2021-04-11T05:05:00Z,00000200,01000000,0000.08,0000.29,0000.09,-000.04,-000.07,-000.08,0000.19,-000.18,-000.03,16.2,23.5,,00.0,0666.5,31.0
2021-04-11T05:06:00Z,00000200,01000000,-000.02,0000.32,0000.24,0000.10,0000.12,0000.20,0000.06,0000.26,0000.06,16.2,23.5,,00.0,0666.5,30.9
2021-04-11T05:07:00Z,00000200,01000000,0000.31,0000.31,0000.09,0000.03,0000.09,0000.01,0000.15,-000.02,0000.04,16.1,23.5,,00.0,0666.6,30.9
2021-04-11T05:08:00Z,00000200,01000000,0000.47,0000.26,0000.22,0000.07,0000.11,0000.30,-000.22,-000.11,0000.13,16.1,23.4,,00.0,0666.6,31.0
2021-04-11T05:09:00Z,00000200,01000000,0000.18,0000.44,0000.32,-000.18,0000.15,0000.11,0000.03,0000.35,0000.14,16.2,23.5,,00.0,0666.6,31.0
2021-04-11T05:10:00Z,00000200,01000000,-000.04,0000.19,-000.33,0000.08,0000.04,-000.01,0000.21,0000.33,0000.09,16.2,23.5,,00.0,0666.6,31.0
2021-04-11T05:11:00Z,00000200,01000000,0000.77,0000.37,0000.09,-000.01,0000.13,-000.11,0001.40,0000.98,0000.80,16.3,23.5,,00.0,0666.6,31.0
2021-04-11T05:12:00Z,00000200,01000000,0000.91,0000.45,0000.48,0000.28,0000.43,-000.15,0004.60,0004.59,0003.69,16.4,23.5,,00.0,0666.6,31.0
2021-04-11T05:13:00Z,00000200,01000000,0001.01,0000.54,0000.22,-000.15,0000.13,0000.07,0003.70,0002.78,0002.59,16.4,23.6,,00.0,0666.6,31.0
2021-04-11T05:14:00Z,00000200,01000000,0000.76,0000.61,0000.23,-000.18,0000.24,-000.14,0002.06,0002.48,0001.67,16.4,23.6,,00.0,0666.6,31.0
2021-04-11T05:15:00Z,00000200,01000000,0000.55,0000.26,0000.02,-000.11,0000.20,-000.11,0001.02,0000.58,0000.65,16.4,23.6,,00.0,0666.5,31.0
2021-04-11T05:16:00Z,00000200,01000000,-000.14,0000.13,-000.14,-000.28,-000.02,0000.14,0000.04,-000.18,0000.25,16.4,23.6,,00.0,0666.5,31.0
2021-04-11T05:17:00Z,00000200,01000000,0000.24,0000.25,0000.41,-000.09,-000.03,0000.16,0000.02,0000.49,0000.17,16.3,23.6,,00.0,0666.5,31.0
2021-04-11T05:18:00Z,00000200,01000000,0000.24,0000.08,0000.16,-000.10,-000.12,-000.28,0000.31,0000.13,0000.09,16.3,23.5,,00.0,0666.5,31.0
2021-04-11T05:19:00Z,00000200,01000000,0000.37,0000.35,0000.23,-000.05,0000.15,0000.10,-000.00,0000.43,0000.30,16.3,23.5,,00.0,0666.5,30.9
2021-04-11T05:20:00Z,00000200,01000000,0000.01,0000.50,-000.07,0000.53,-000.03,-000.06,0000.16,-000.27,-000.21,16.2,23.5,,00.0,0666.5,30.9
2021-04-11T05:21:00Z,00000200,01000000,0000.67,0000.37,0000.08,0000.17,0000.25,-000.07,0000.19,0000.23,0000.21,16.2,23.5,,00.0,0666.5,30.9
2021-04-11T05:22:00Z,00000200,01000000,0000.30,0000.35,0000.09,0000.40,0000.16,0000.25,0000.11,0000.10,-000.08,16.2,23.4,,00.0,0666.5,30.9
2021-04-11T05:23:00Z,00000200,01000000,0000.19,0000.27,-000.03,-000.17,0000.19,0000.24,0000.41,0000.56,0000.48,16.2,23.4,,00.0,0666.5,31.0
2021-04-11T05:24:00Z,00000200,01000000,0000.15,0000.07,0000.19,-000.12,0000.02,0000.04,0000.04,-000.16,0000.05,16.2,23.4,,00.0,0666.5,31.0
2021-04-11T05:25:00Z,00000200,01000000,0000.71,0000.26,0000.18,0000.03,0000.06,-000.17,-000.15,0000.16,-000.01,16.3,23.5,,00.0,0666.5,31.0
2021-04-11T05:26:00Z,00000200,01000000,0000.92,0000.32,0000.15,0000.07,0000.23,-000.02,0000.43,0000.37,0000.26,16.3,23.5,,00.0,0666.5,31.0
2021-04-11T05:27:00Z,00000200,01000000,0000.27,0000.11,0000.18,-000.16,0000.13,-000.01,-000.04,-000.05,0000.05,16.4,23.5,,00.0,0666.5,31.0
2021-04-11T05:28:00Z,00000200,01000000,0000.15,0000.46,0000.08,-000.12,0000.37,0000.01,0000.37,0000.22,0000.26,16.5,23.5,,00.0,0666.6,31.0
2021-04-11T05:29:00Z,00000200,01000000,0000.49,0000.43,0000.17,0000.45,0000.16,0000.15,-000.13,0000.17,-000.02,16.5,23.6,,00.0,0666.6,31.0
2021-04-11T05:30:00Z,00000200,01000000,0000.87,0000.16,0000.19,-000.14,0000.17,0000.14,0000.12,-000.14,-000.38,16.5,23.6,,00.0,0666.6,31.0
2021-04-11T05:31:00Z,00000200,01000000,0000.23,0000.01,-000.02,-000.27,0000.31,0000.04,0000.26,-000.10,0000.10,16.4,23.6,,00.0,0666.6,31.0
2021-04-11T05:32:00Z,00000200,01000000,0000.55,0000.31,0000.09,0000.38,-000.08,-000.20,-000.35,0000.07,-000.13,16.4,23.6,,00.0,0666.6,31.0
2021-04-11T05:33:00Z,00000200,01000000,0000.60,0000.18,0000.22,-000.17,0000.38,-000.14,0000.81,0000.50,0000.89,16.4,23.5,,00.0,0666.7,31.0
2021-04-11T05:34:00Z,00000200,01000000,0004.32,0002.97,0001.90,0000.78,0000.55,0000.36,0037.13,0034.24,0027.34,16.4,23.5,,00.0,0666.7,31.0
2021-04-11T05:35:00Z,00000200,01000000,0007.12,0005.86,0003.50,0001.99,0001.20,0000.86,0083.33,0078.14,0063.31,16.3,23.5,,00.0,0666.7,30.9
2021-04-11T05:36:00Z,00000200,01000000,0004.30,0003.67,0002.47,0001.06,0001.13,0000.60,0053.84,0050.22,0041.00,16.3,23.5,,00.0,0666.7,31.0
2021-04-11T05:37:00Z,00000200,01000000,0004.32,0002.66,0001.68,0000.72,0000.46,0000.45,0038.41,0036.11,0029.02,16.3,23.5,,00.0,0666.7,31.0
2021-04-11T05:38:00Z,00000200,01000000,0002.63,0002.39,0001.54,0000.82,0000.56,0000.40,0030.88,0028.38,0023.43,16.3,23.5,,00.0,0666.7,31.0
2021-04-11T05:39:00Z,00000200,01000000,0002.94,0002.22,0001.14,0000.50,0000.55,0000.41,0029.30,0027.43,0022.41,16.3,23.4,,00.0,0666.7,31.0
2021-04-11T05:40:00Z,00000200,01000000,0002.70,0002.34,0001.38,0000.76,0000.40,0000.52,0030.32,0028.44,0023.38,16.3,23.5,,00.0,0666.7,31.0
2021-04-11T05:41:00Z,00000200,01000000,0005.02,0003.45,0002.33,0000.64,0000.78,0000.71,0048.83,0045.71,0036.77,16.4,23.5,,00.0,0666.7,31.0
2021-04-11T05:42:00Z,00000200,01000000,0005.39,0003.77,0002.26,0001.19,0000.86,0000.79,0049.86,0046.26,0037.72,16.5,23.5,,00.0,0666.7,31.0
2021-04-11T05:43:00Z,00000200,01000000,0002.95,0002.28,0001.01,0000.66,0000.41,0000.14,0028.52,0026.90,0022.07,16.5,23.6,,00.0,0666.8,31.0
2021-04-11T05:44:00Z,00000200,01000000,0001.36,0000.44,0000.15,0000.14,0000.10,-000.12,0005.79,0005.31,0004.27,16.5,23.6,,00.0,0666.8,31.0
2021-04-11T05:45:00Z,00000200,01000000,0000.65,0000.43,0000.01,0000.40,0000.09,-000.21,0001.29,0000.94,0001.01,16.5,23.6,,00.0,0666.8,31.0
2021-04-11T05:46:00Z,00000200,01000000,0000.24,0000.24,-000.13,0000.18,-000.02,0000.09,0000.18,0000.44,0000.55,16.5,23.6,,00.0,0666.8,31.0
2021-04-11T05:47:00Z,00000200,01000000,0000.65,0000.18,0000.10,0000.78,-000.02,0000.09,0000.66,0000.71,0000.35,16.4,23.6,,00.0,0666.8,31.0
2021-04-11T05:48:00Z,00000200,01000000,0000.89,0000.18,0000.10,0000.22,0000.08,-000.03,0000.61,0000.30,0000.40,16.4,23.5,,00.0,0666.8,31.0
2021-04-11T05:49:00Z,00000200,01000000,0000.56,0000.54,-000.03,0000.22,0000.29,0000.00,0000.84,0000.63,0000.25,16.3,23.5,,00.0,0666.9,31.0
2021-04-11T05:50:00Z,00000200,01000000,0000.30,0000.10,-000.18,0000.51,0000.07,-000.05,0000.33,0000.35,0000.40,16.3,23.5,,00.0,0666.9,31.0
2021-04-11T05:51:00Z,00000200,01000000,0000.83,0000.13,-000.10,0000.44,0000.06,-000.06,-000.11,0000.20,0000.26,16.3,23.5,,00.0,0666.9,31.0
2021-04-11T05:52:00Z,00000200,01000000,0000.39,0000.37,-000.16,0000.30,0000.10,-000.31,0001.18,0000.48,0000.35,16.3,23.5,,00.0,0666.9,31.0
2021-04-11T05:53:00Z,00000200,01000000,0000.05,0000.51,0000.16,0000.27,0000.01,-000.16,-000.07,0000.16,0000.43,16.3,23.4,,00.0,0666.9,31.0
2021-04-11T05:54:00Z,00000200,01000000,0000.37,0000.23,0000.15,0000.01,0000.11,0000.09,0000.09,0000.58,-000.15,16.3,23.5,,00.0,0666.9,30.9
2021-04-11T05:55:00Z,00000200,01000000,0000.66,0000.14,-000.14,0000.15,-000.04,0000.17,0000.58,0000.22,0000.60,16.4,23.5,,00.0,0666.9,31.0
2021-04-11T05:56:00Z,00000200,01000000,0000.48,0000.25,0000.22,0000.28,0000.06,0000.11,0000.20,0000.13,0000.04,16.4,23.5,,00.0,0666.8,31.0
2021-04-11T05:57:00Z,00000200,41000000,,,,,,,0001.13,0000.85,0001.10,16.5,23.6,,00.0,0666.9,31.0
2021-04-11T05:58:00Z,00000200,61000000,,,,,,,-000.42,0000.22,-000.60,16.2,23.7,,00.0,0665.9,31.0
2021-04-11T05:59:00Z,00000200,21000000,,,,,,,0000.08,-000.19,0000.39,16.2,23.8,,00.0,0665.9,31.0
